Find Local Weather

World > North America > United States > Washington

Cle Elum, Washington Regional Weather

Lat: 47.19N, Lon: 120.93W
Wx Zone: WAZ520
Warning FLW WEATHER ALERT - AIR STAGNATION ADVISORY (More Info. Click Here) Warning
Feedback
Expires:201810231600;;617989
ASUS46 KSEW 231510
RWRWA 

WASHINGTON REGIONAL WEATHER ROUNDUP
NATIONAL WEATHER SERVICE SEATTLE WA
800 AM PDT TUE OCT 23 2018

NOTE:"FAIR" INDICATES FEW OR NO CLOUDS BELOW 12,000 FEET WITH NO 
SIGNIFICANT WEATHER AND/OR OBSTRUCTIONS TO VISIBILITY.


WAZ026-027-041>044-520-521-231600-
EAST SLOPES
  
CITY           SKY/WX    TMP DP  RH WIND       PRES   REMARKS
OMAK           CLEAR     39  38  96 NE9       29.97S                  
WENATCHEE      CLEAR     41  35  79 CALM      29.95S                  
ELLENSBURG     CLEAR     34  30  85 CALM      29.95R                  
YAKIMA         CLEAR     34  31  88 W8        29.95R                  
SUNNYSIDE ARPT SUNNY     35  34  97 CALM      29.94S                  
$$


SKY/WX - Weather  TMP - Temperature  DP - Dew Point  RH - Relative Humidity
WIND - Wind Direction/Speed PRES - Barometric Pressure
Opt in/Opt out of Taboola Video Ads